Вернуться в каталог

ONEWEB-0108

АктивенСвязьPO
NORAD 48076·PAYLOAD·🇬🇧 United Kingdom

Запущен Mar 25, 2021 с Vostochny Cosmodrome

Loading…

Ближайшие Пролёты (ближайшие 24 часа)

TLE

СвежийSource: CelesTrak SupGP

Эпоха: Sep 14, 2026, 20:02 UTC

1 48076C 21025AL  26257.83488843 -.00000125  00000+0 -34390-3 0  2571
2 48076  87.8924 302.3847 0002102 101.2682   2.0404 13.13469480    17

Отслеживайте ONEWEB-0108 в реальном времени с AllMySat

Download on the App Store